Wind_Speed
21 20 19 18 17 17 16 14 12 10 9 8 8 8 8 8 9 9 10 10 11 12 13 14 14 15 15 15 16 13 12 9 7 10 8 1 6 6 2 1 5 6 9 12 13 11 7 9 10 11 12 8 6 3 4 6 5 4 5 2 3 3 3 7 8 7 7 8 9 6 6 4 3 6 4 2 10 15 14 13 11 10 9 6 6 6 7 7
21 20 19 18 17 16 15 14 13 11 9 9 8 8 8 9 9 10 10 11 11 12 14 14 15 16 16 17 16 14 13 9 11 11 4 4 3 4 3 2 3 6 9 11 13 12 9 8 10 10 10 5 3 4 3 4 3 5 4 2 4 4 6 10 11 9 9 8 10 7 5 3 3 5 1 1 5 12 15 10 7 8 7 4 5 6 7 6
23 22 20 19 17 15 14 14 13 12 11 10 9 8 8 9 9 10 10 11 11 13 14 14 15 16 17 18 16 14 12 9 11 5 7 5 2 3 2 2 3 6 8 11 16 14 6 6 9 10 10 4 1 3 5 4 3 3 1 4 4 8 9 11 11 8 9 7 9 6 4 6 8 5 3 5 3 10 15 5 0 4 5 2 3 5 5 6
25 23 21 19 18 16 14 13 13 12 12 11 10 8 8 9 9 10 10 10 11 12 13 14 16 17 18 18 16 12 7 8 4 7 8 4 3 2 1 1 4 6 9 14 18 16 7 6 9 9 11 4 1 2 5 5 2 1 4 2 4 10 8 6 8 9 9 7 4 7 10 10 8 7 9 9 5 9 12 0 3 4 5 3 3 4 4 6
26 25 23 21 18 17 15 13 13 12 12 12 11 9 8 9 9 9 10 10 11 12 13 15 16 18 18 18 16 8 5 5 5 11 7 4 3 2 2 2 5 7 10 17 13 6 6 9 8 7 9 3 3 4 2 5 2 5 3 3 4 8 5 4 6 9 9 9 11 14 13 6 4 8 11 11 7 8 8 3 4 5 6 5 4 5 5 6
27 26 25 22 19 17 16 14 13 12 12 12 12 10 9 9 9 10 10 10 11 11 13 15 17 18 18 19 15 5 5 1 8 8 6 4 2 2 3 2 4 7 9 17 10 5 7 9 7 7 7 3 3 3 3 6 3 2 2 5 7 7 6 6 8 10 12 15 17 13 8 5 5 9 9 9 9 9 7 5 5 5 5 4 4 5 6 5
27 27 26 23 20 18 17 15 14 13 13 13 13 11 9 9 9 10 10 11 12 12 13 15 18 18 19 19 11 7 8 3 9 7 6 3 2 2 3 2 5 8 10 15 8 6 7 8 8 9 5 3 2 1 5 3 3 2 2 7 8 7 7 7 9 10 15 17 13 6 4 8 8 8 6 5 10 11 10 6 6 6 5 4 4 4 6 5
27 27 26 24 21 19 18 16 15 14 14 13 13 12 10 10 10 10 11 12 12 12 13 16 18 18 20 16 8 8 5 6 10 7 5 2 1 1 3 4 8 11 15 15 8 7 6 7 10 9 4 4 1 2 6 4 5 5 4 7 6 6 7 7 9 13 16 9 6 9 8 9 9 7 6 5 8 12 10 7 7 8 7 4 4 5 6 5
26 27 27 25 22 20 19 18 17 16 15 14 13 13 11 10 11 11 12 13 13 13 13 16 18 19 20 11 8 7 4 11 10 7 4 1 2 3 4 8 10 16 17 8 6 8 4 5 6 5 5 4 1 2 9 5 4 4 6 9 6 7 8 7 10 12 13 6 6 11 6 7 7 4 6 5 7 13 14 10 7 7 8 5 4 5 6 5
25 27 27 25 22 20 20 19 18 17 16 15 14 13 11 11 11 12 12 13 13 13 14 17 17 18 17 10 9 4 9 11 9 8 4 3 3 6 10 12 11 17 12 5 6 8 5 6 2 2 5 2 1 4 11 4 2 8 12 13 10 9 7 6 10 10 8 7 8 9 5 6 5 2 4 4 4 9 14 13 9 6 7 6 5 5 5 4
25 26 27 26 23 21 20 20 20 19 17 16 15 13 12 11 11 12 13 13 14 14 15 16 17 17 14 12 10 1 9 10 9 8 5 5 6 6 8 7 8 12 6 5 6 5 5 4 1 1 2 2 2 4 8 8 9 12 10 10 8 7 5 5 10 8 5 6 7 9 7 6 4 3 5 5 3 4 8 11 12 9 6 6 6 4 4 2
24 27 28 26 23 21 21 21 21 20 18 16 14 13 12 11 11 12 13 14 14 14 15 16 17 16 12 11 4 5 10 9 9 8 7 5 7 5 3 2 5 9 10 3 5 2 8 4 2 1 1 1 2 3 9 14 11 8 8 5 3 5 3 6 10 7 4 4 5 6 6 6 6 4 4 5 2 2 2 4 10 13 10 7 5 4 3 3
25 27 28 27 24 22 22 23 22 21 18 16 14 12 11 10 11 11 13 13 13 15 16 16 18 15 11 6 5 8 8 10 7 6 7 6 6 5 2 2 5 4 9 8 8 0 5 1 7 3 1 3 3 5 9 13 7 6 6 3 2 4 1 7 7 5 4 3 3 4 1 5 7 4 4 4 3 3 2 1 4 11 14 9 6 5 5 5
25 27 29 28 25 23 23 24 23 21 17 14 12 11 9 9 10 11 12 13 13 15 15 17 19 13 8 1 7 4 4 8 7 6 7 8 7 6 3 3 4 1 4 5 5 1 3 3 4 1 2 1 8 9 7 6 5 5 3 3 1 2 3 8 5 4 4 2 5 5 1 4 6 5 4 4 6 5 2 3 3 7 13 10 7 7 6 7
25 27 29 29 26 24 24 25 24 19 15 13 10 9 8 9 10 10 12 13 13 14 15 19 17 8 5 2 7 3 3 8 10 10 11 9 9 8 6 5 2 1 4 1 2 1 4 4 2 3 2 9 13 8 3 3 5 2 3 2 2 2 2 7 8 6 6 5 5 4 1 5 6 6 6 5 8 7 4 2 2 4 10 11 8 6 4 5
25 28 30 30 27 24 24 25 23 18 13 11 9 8 8 9 10 11 12 13 13 13 13 14 11 10 5 3 10 9 8 11 11 9 10 7 8 6 8 2 3 3 4 0 1 4 4 5 2 1 4 8 6 1 3 3 2 3 3 1 2 1 2 5 7 10 9 4 3 3 1 5 6 7 6 3 7 8 5 2 2 2 7 10 9 6 3 3
26 28 31 31 27 24 24 24 22 16 12 10 9 8 8 8 9 11 12 13 13 13 12 13 13 11 3 6 10 11 11 10 10 8 7 5 8 2 9 5 5 5 4 3 6 5 2 3 1 1 2 4 2 2 2 3 2 4 4 1 2 2 0 4 5 12 12 2 3 2 1 7 7 7 7 5 6 7 5 2 1 2 4 7 9 9 6 4
26 28 31 31 27 24 24 23 20 16 13 10 8 6 7 7 9 11 11 11 9 10 12 14 14 8 4 9 11 10 9 9 9 9 7 4 4 4 6 6 6 4 6 6 5 4 2 2 3 1 2 4 6 5 1 4 5 5 6 2 0 2 1 6 5 11 15 6 3 0 2 7 9 8 8 7 8 7 5 5 3 2 4 5 8 10 9 7
27 29 32 32 28 24 23 22 19 16 13 7 5 6 6 6 8 10 10 9 5 5 6 6 9 4 4 11 13 8 8 9 7 8 8 6 5 7 7 4 6 5 7 5 3 4 3 3 4 4 3 4 7 4 3 3 0 7 9 3 3 1 3 8 8 11 11 7 6 4 3 5 7 8 8 8 8 6 5 5 3 3 4 3 6 10 10 8
27 29 33 33 29 24 22 20 16 15 13 6 4 6 5 4 4 5 8 10 9 8 4 7 8 4 7 10 10 8 10 9 7 8 10 7 7 8 4 4 5 5 7 3 1 0 1 3 2 2 2 5 5 3 5 3 5 11 10 4 3 3 6 8 10 10 9 6 2 2 7 9 9 8 9 9 7 6 7 6 4 4 4 3 6 10 10 7
27 30 33 33 30 24 21 18 13 13 12 7 4 5 4 1 2 2 4 9 12 10 7 4 4 1 7 9 9 10 8 8 9 7 8 9 10 7 6 6 5 4 4 3 2 2 2 3 1 5 7 7 6 4 4 4 3 10 7 3 1 2 4 6 11 12 9 6 2 6 8 5 6 7 10 10 6 6 8 6 6 5 6 5 5 10 10 6
27 29 33 34 30 24 19 15 10 10 10 6 4 9 4 5 4 4 3 6 8 8 4 3 4 2 3 6 10 11 9 8 10 7 7 9 9 5 5 6 6 3 2 3 2 1 4 1 5 6 6 1 1 2 3 5 2 5 6 3 1 4 4 5 13 12 6 4 5 9 8 7 9 9 8 8 7 9 8 6 9 8 6 6 5 8 10 8
27 30 33 34 30 23 17 13 8 9 11 8 8 7 6 7 7 6 5 5 3 8 7 6 8 5 4 6 10 14 12 8 7 8 8 10 8 5 4 3 5 4 4 3 2 1 1 4 7 6 3 6 2 3 1 3 3 3 4 2 3 7 5 3 8 8 5 4 6 9 7 8 11 10 8 9 8 11 9 6 12 9 6 7 6 6 8 10
26 29 32 34 31 21 15 12 8 8 11 9 3 4 8 8 9 9 4 5 4 7 7 7 8 8 5 5 11 14 10 6 6 9 10 10 8 3 4 3 5 6 3 3 5 2 4 8 5 2 1 7 3 2 2 3 1 3 3 2 4 5 5 5 9 7 2 2 6 8 6 6 4 4 8 10 10 9 10 7 9 9 6 6 7 6 5 8
26 28 31 34 30 21 15 12 9 7 9 6 4 8 9 8 9 8 5 3 4 3 3 5 4 7 7 7 12 12 10 7 8 9 9 8 7 5 3 2 4 3 4 2 4 2 6 7 2 3 2 4 6 1 3 6 2 3 3 4 5 4 5 9 11 6 1 2 6 5 4 3 0 4 8 3 5 8 8 5 5 7 7 6 6 5 5 6
25 27 31 32 29 23 15 7 8 12 11 5 7 8 10 9 8 5 2 3 2 4 5 4 1 7 9 7 9 12 12 6 6 6 4 4 4 5 4 2 3 2 4 1 1 3 4 3 1 4 1 2 6 3 6 7 5 4 4 4 4 4 3 9 12 4 2 4 5 5 5 1 1 5 6 3 4 7 6 8 7 5 6 5 5 5 5 6
24 26 30 31 28 24 13 6 13 15 8 5 8 9 9 9 9 5 2 3 3 3 6 5 2 5 8 6 6 8 7 8 6 4 4 3 3 4 2 3 4 2 2 2 0 2 1 2 3 2 3 2 3 5 6 7 6 4 5 5 5 6 5 4 9 5 4 6 5 8 10 2 1 4 5 5 8 8 8 9 8 6 7 6 5 6 7 7
24 26 29 30 25 18 11 11 16 13 7 10 9 10 10 10 8 2 2 2 4 2 3 6 4 5 5 5 9 7 7 9 7 6 4 4 5 3 1 3 3 6 3 4 1 2 1 4 2 3 4 1 3 5 5 6 7 6 5 4 5 4 3 2 2 4 5 6 4 6 8 3 1 3 4 5 8 9 9 10 10 10 9 7 5 6 8 9
24 25 28 31 22 9 9 13 12 11 11 11 10 11 10 8 6 2 2 2 3 3 1 6 3 6 7 7 10 8 9 7 7 8 6 7 4 5 3 3 1 9 4 5 2 4 3 5 6 5 6 5 7 6 3 6 5 5 2 4 4 3 1 3 4 4 3 4 5 8 6 3 2 2 2 4 6 7 7 7 10 11 10 10 10 7 7 9
25 25 28 31 20 8 10 13 10 10 11 10 12 12 8 5 2 3 3 1 4 4 3 4 5 8 10 8 6 8 10 6 5 10 7 6 5 5 3 5 4 3 4 1 5 6 3 1 2 3 5 5 5 2 1 4 4 3 7 7 6 4 1 3 3 4 1 3 6 9 8 6 4 2 1 3 7 7 6 6 9 11 12 12 11 10 8 8
24 25 28 29 19 10 9 8 6 9 10 11 15 12 7 3 1 3 3 0 3 6 5 6 8 9 11 8 5 8 8 3 6 9 6 4 5 5 2 2 3 2 1 2 4 3 6 5 2 2 3 3 3 4 4 1 3 5 6 3 2 2 1 2 0 2 1 3 5 6 11 10 4 2 2 6 10 9 8 8 9 12 12 12 11 10 8 8
25 26 28 23 15 12 10 8 10 12 11 14 14 8 5 4 3 3 3 2 2 4 6 7 8 9 10 8 6 7 6 4 7 9 6 5 4 1 2 0 1 1 0 1 1 4 4 3 3 3 1 3 6 4 4 5 4 5 3 2 2 2 1 2 2 2 2 3 4 7 11 8 4 5 7 9 10 10 10 10 10 11 11 10 11 11 9 7
26 27 23 15 11 11 11 10 12 12 13 14 10 4 4 5 4 3 5 5 1 1 4 5 8 10 10 9 6 5 5 5 8 7 4 3 2 3 1 3 2 3 1 1 1 2 1 2 2 4 4 2 6 6 2 1 2 3 2 1 2 2 2 4 3 2 3 2 4 9 9 4 4 7 9 10 9 10 11 11 9 8 9 10 10 12 11 9
27 25 18 11 9 9 9 9 10 11 12 11 6 3 4 5 3 3 6 4 1 3 7 3 6 10 8 5 6 6 5 5 6 5 5 4 1 2 3 1 2 2 0 1 1 2 1 1 2 2 2 4 7 6 5 6 5 3 4 2 2 3 3 3 2 3 4 2 5 8 5 2 4 6 7 8 8 10 11 10 9 8 9 10 10 11 10 7
26 21 14 11 9 7 7 8 7 9 9 7 5 5 5 5 2 3 5 3 4 6 6 6 8 9 7 4 6 6 2 2 7 6 3 4 3 1 1 3 3 1 2 1 1 1 2 1 4 4 4 5 6 3 3 6 4 4 4 3 3 4 4 2 3 5 5 2 3 6 3 3 5 6 7 8 10 12 10 9 9 9 10 9 8 9 8 7
26 19 11 10 10 6 5 6 5 6 7 5 5 6 4 2 2 3 5 5 6 6 6 7 8 7 6 6 6 6 3 4 7 7 4 4 6 3 2 4 3 2 3 2 0 1 3 1 4 0 2 1 6 4 4 5 3 4 3 2 4 4 5 3 3 2 2 1 3 4 2 2 4 6 10 12 11 11 10 9 10 9 11 10 7 7 8 9
25 18 12 12 9 6 5 6 5 5 6 4 5 4 1 2 2 6 7 5 5 6 7 6 5 6 6 7 5 7 7 4 6 4 3 5 5 1 2 5 2 5 5 3 1 2 4 1 2 2 2 5 2 5 4 3 4 6 4 4 3 2 5 4 1 1 1 2 5 5 4 4 3 3 7 9 9 6 7 9 10 10 12 11 8 8 9 11
20 13 11 11 4 5 5 5 4 5 5 3 5 2 3 1 6 11 11 6 4 5 3 1 3 4 3 6 7 8 9 5 5 4 3 5 4 2 1 6 2 4 5 3 1 2 4 3 2 1 1 5 3 5 4 2 2 5 4 3 3 2 2 3 2 2 3 2 4 6 6 6 4 2 3 5 6 8 9 10 10 11 11 10 9 9 11 11
14 8 5 3 2 4 4 4 4 5 4 5 6 3 3 4 7 15 16 7 4 2 3 3 4 2 1 4 6 8 9 5 5 5 4 3 5 2 3 2 3 2 3 4 3 2 3 3 2 1 2 2 2 2 1 2 1 3 2 2 4 3 2 3 2 2 2 2 1 5 5 3 2 1 4 5 7 9 9 9 9 10 11 10 9 9 10 10
9 5 1 3 3 3 4 4 4 5 4 6 6 2 3 2 6 16 16 6 4 2 2 4 6 1 4 6 4 5 8 7 5 4 4 3 4 3 0 1 1 3 4 4 4 4 3 3 1 1 1 0 1 2 3 3 3 4 4 4 4 3 4 4 2 1 1 2 2 2 3 1 2 1 5 8 8 8 9 9 9 10 11 11 10 10 9 8
7 5 1 4 3 4 5 4 5 4 5 7 5 3 2 1 8 13 11 7 3 5 4 6 6 5 6 5 4 5 4 6 5 3 2 4 2 1 3 2 4 4 3 2 4 6 3 3 3 2 1 1 3 5 5 6 6 5 4 4 4 4 4 3 2 3 3 2 2 2 4 2 3 5 7 8 8 9 11 10 8 10 11 10 10 10 9 7
6 4 3 6 4 5 5 5 5 5 6 5 3 3 3 4 8 10 10 7 6 8 7 5 4 7 7 4 3 3 4 3 5 3 0 2 4 5 5 2 3 4 3 3 5 7 3 3 4 4 0 4 5 5 6 7 6 5 4 4 4 4 4 3 3 4 4 3 3 2 5 3 6 7 7 8 9 10 11 10 9 10 10 9 10 9 8 7
4 3 1 6 7 6 5 5 6 6 4 1 1 3 4 3 7 8 10 10 8 7 6 4 5 8 6 5 3 3 5 2 2 3 1 4 7 8 6 1 3 3 4 3 5 6 4 3 3 4 1 3 3 3 2 3 2 2 3 4 5 5 5 5 4 3 3 4 3 1 4 2 4 7 7 8 9 10 10 10 10 9 8 8 9 9 8 8
4 6 2 6 9 6 6 6 6 5 4 4 3 4 5 6 8 7 5 7 6 5 6 5 6 7 5 5 4 2 5 3 2 2 2 5 5 5 5 2 3 4 5 4 4 4 3 2 3 4 2 2 3 3 2 1 1 2 5 4 4 7 8 5 3 3 2 3 3 2 3 4 4 7 8 9 10 10 10 10 9 8 7 8 8 8 8 7
5 5 4 6 8 6 7 5 5 5 3 6 5 4 4 6 7 5 2 4 7 6 5 5 6 5 4 6 5 2 5 3 2 3 3 6 6 4 3 3 4 6 7 6 5 3 3 3 3 3 3 1 1 2 0 2 2 4 5 5 5 9 10 5 3 2 2 4 5 3 5 6 6 8 9 10 10 10 10 10 9 9 8 9 8 6 7 7
3 3 4 4 7 6 7 6 6 6 1 4 3 3 5 7 6 6 4 5 5 6 5 5 6 6 5 6 5 3 6 5 4 4 3 4 6 4 4 6 7 8 6 4 4 2 3 3 1 3 3 1 2 2 1 3 3 3 2 4 7 9 8 6 4 3 4 5 4 6 6 6 7 8 9 10 10 10 10 9 9 9 8 8 8 7 8 8
2 4 4 1 3 5 5 7 7 5 3 5 2 3 7 8 7 6 4 3 4 3 5 5 5 5 5 5 4 3 5 6 5 5 4 5 7 6 4 5 7 6 2 2 2 1 4 1 3 3 1 1 2 3 1 2 4 3 4 6 7 8 7 6 4 4 5 4 3 7 8 7 8 8 9 9 9 8 9 9 9 8 8 7 7 8 10 10
3 5 2 1 3 5 4 5 7 8 7 5 0 3 7 9 8 5 5 4 6 3 5 4 5 5 5 5 4 2 2 3 3 3 4 5 6 5 4 4 7 5 4 2 3 1 4 0 3 3 1 4 3 1 2 2 1 1 2 3 4 6 6 5 4 6 6 4 5 8 10 9 8 8 8 8 8 8 9 9 9 9 9 9 9 10 11 11
4 5 3 3 4 6 6 7 7 9 8 6 2 4 6 8 9 7 5 5 5 5 6 3 4 5 5 6 4 2 2 1 2 3 3 3 3 3 3 3 5 4 3 3 3 2 1 1 0 2 3 0 3 3 4 3 1 0 3 4 2 5 6 6 8 9 6 4 6 7 9 9 7 7 8 8 7 8 8 8 9 10 10 10 10 11 10 9
4 4 5 7 6 6 7 8 7 8 6 6 6 5 6 11 11 6 5 5 5 5 6 7 5 5 3 5 4 3 3 2 1 2 2 2 2 2 1 1 2 2 3 4 1 0 1 2 3 1 2 3 1 2 1 1 2 3 7 8 6 7 9 10 10 9 6 4 6 5 7 8 6 6 8 8 8 8 9 10 10 10 10 10 10 9 9 9
7 6 5 5 5 5 6 6 6 6 5 5 5 6 8 11 7 3 6 5 6 6 4 6 8 5 1 3 2 3 4 3 3 4 4 2 1 1 0 1 2 2 3 1 1 1 1 0 1 2 3 3 0 2 2 3 2 5 6 6 7 7 6 7 8 7 5 4 4 4 5 5 5 5 6 7 9 10 11 11 10 9 10 10 9 10 10 10
11 8 5 4 5 6 6 6 6 6 6 5 6 8 8 8 6 4 6 3 5 7 3 4 6 5 2 3 3 3 2 2 3 5 5 3 2 4 3 2 2 2 3 2 1 0 2 2 4 3 2 4 2 1 5 2 0 3 5 6 7 5 5 6 8 7 6 4 4 5 5 4 4 5 5 6 9 10 10 10 8 8 9 9 10 11 11 11
Wind_Direction
25 23 23 23 23 20 19 16 11 3 353 344 335 328 318 313 314 315 320 323 325 327 329 332 334 333 333 333 333 330 313 299 285 255 225 89 45 62 67 197 234 233 217 213 231 238 205 222 213 205 220 200 229 215 145 241 251 235 245 278 290 302 341 2 18 27 28 63 77 89 74 51 133 97 90 107 93 95 82 71 62 58 62 81 121 121 96 86
24 21 18 16 16 15 13 10 7 1 352 344 339 334 321 313 313 314 320 321 325 328 330 334 334 335 333 334 338 331 321 306 269 252 181 91 64 69 58 69 209 204 213 231 240 219 180 207 202 200 222 200 221 174 160 242 224 250 269 340 313 354 15 2 14 16 6 62 81 68 70 26 43 70 18 333 96 103 85 69 61 71 81 105 131 103 84 87
22 19 16 12 9 7 6 4 1 357 349 340 337 336 325 315 312 313 318 320 325 327 330 333 332 335 333 337 341 337 335 304 264 231 115 116 130 94 96 114 175 200 222 252 263 252 212 193 195 218 232 212 249 183 179 204 195 229 49 19 350 34 22 354 1 6 356 41 87 92 76 26 26 36 350 347 26 93 83 68 80 112 127 148 121 82 79 100
19 16 14 9 5 1 358 357 354 351 346 337 332 330 324 316 311 312 316 318 322 324 329 330 329 333 335 338 341 344 331 286 256 118 119 146 160 154 177 181 231 243 253 265 276 280 272 214 202 239 250 213 129 221 182 173 244 278 99 29 7 49 33 336 349 3 354 354 37 70 65 38 14 19 9 359 4 72 74 105 225 145 160 174 140 94 86 93
16 13 10 7 3 357 353 350 346 345 340 335 328 322 317 312 309 308 312 314 316 322 326 326 326 328 334 337 337 336 291 275 114 116 129 158 179 201 225 245 269 267 266 273 277 266 253 242 226 245 256 201 149 227 165 125 359 340 30 3 16 52 37 349 13 15 349 347 19 40 55 48 353 28 23 18 30 59 71 171 177 143 180 176 137 113 102 96
14 11 8 4 1 356 351 345 340 338 333 330 325 317 309 305 305 303 306 308 310 317 322 324 323 325 333 335 332 298 259 10 111 124 121 147 185 193 235 253 269 245 254 274 265 195 229 242 230 237 240 175 173 234 88 91 78 18 23 34 24 35 34 10 15 17 10 26 44 44 39 30 28 49 47 45 66 87 101 145 162 151 179 153 115 113 111 104
11 8 6 2 358 355 350 343 337 332 328 325 322 315 303 295 297 297 299 303 304 311 318 320 320 324 331 333 327 248 240 114 112 119 116 149 181 183 250 235 237 234 249 267 245 193 233 237 231 243 246 131 164 324 68 77 72 38 14 51 30 21 38 22 15 37 50 53 64 75 38 44 57 67 66 63 84 100 112 143 176 152 148 139 118 102 100 91
8 6 3 360 357 353 349 344 335 329 324 320 318 313 301 287 287 290 292 295 298 307 314 316 319 326 331 331 309 250 230 115 115 122 125 137 211 248 292 246 230 238 250 257 230 205 227 244 247 250 306 45 128 72 62 39 40 33 22 50 41 28 34 31 35 58 71 68 76 76 56 59 70 78 71 69 104 116 123 150 180 148 139 149 124 93 79 72
4 3 1 358 356 352 349 344 336 329 322 319 314 310 301 283 279 281 285 290 294 303 309 314 319 326 328 321 277 270 110 115 131 136 130 140 243 245 262 253 241 241 243 244 237 235 215 243 264 270 310 30 149 90 67 44 9 32 41 38 32 37 29 39 53 61 68 56 81 80 60 64 74 86 73 63 117 132 135 151 176 142 131 136 106 91 83 78
1 1 359 356 354 351 348 343 337 329 322 318 312 308 301 282 274 275 280 286 292 300 305 312 319 324 323 300 273 288 110 125 140 143 159 197 231 235 241 249 255 250 232 167 232 249 233 243 260 307 294 31 90 61 75 93 52 49 44 32 23 24 17 50 63 64 72 61 86 101 91 78 80 82 80 90 120 127 134 146 160 141 121 119 95 78 75 69
358 358 357 355 352 350 347 343 338 329 323 318 310 306 299 283 272 272 277 282 288 296 303 310 315 319 313 284 280 242 146 147 147 157 174 200 227 250 256 249 270 280 260 178 211 265 302 291 152 135 307 63 88 69 77 77 68 69 67 46 22 358 350 70 76 73 95 85 97 117 119 108 95 64 78 110 114 106 130 143 146 137 116 110 111 110 98 81
355 356 356 354 351 350 347 344 338 330 323 317 310 303 295 282 271 270 273 279 284 292 300 305 310 315 304 282 272 159 167 156 151 166 170 206 231 249 289 258 278 308 309 281 133 306 327 4 245 241 80 124 72 62 82 78 72 77 89 77 349 298 329 71 75 70 79 92 121 144 136 99 77 68 87 104 103 77 105 138 136 129 123 126 141 144 142 155
353 355 355 354 352 350 348 345 339 332 325 317 310 299 291 280 269 267 270 275 280 289 297 301 304 306 292 287 110 137 158 149 158 169 172 214 228 209 190 272 284 317 322 347 81 137 299 282 270 294 131 222 76 70 89 94 101 92 96 117 296 291 92 90 79 74 65 70 148 176 137 70 81 98 100 104 100 63 16 260 139 125 121 134 167 160 168 170
351 353 354 353 352 349 349 347 340 333 326 317 306 296 289 276 266 264 265 269 277 286 294 295 298 296 274 252 107 131 134 143 170 185 185 208 210 187 161 227 267 301 312 349 71 199 233 215 261 129 177 313 63 62 57 59 53 78 139 174 189 294 108 119 123 113 98 127 200 212 17 65 96 120 130 161 136 100 257 239 148 126 122 138 167 161 171 160
349 351 353 353 351 350 350 348 342 335 328 315 302 295 284 269 264 259 259 265 272 282 293 295 291 271 251 150 128 154 148 162 179 188 192 200 204 176 158 208 217 354 284 315 80 237 236 230 189 137 91 52 58 56 52 32 24 46 206 189 197 252 107 135 145 142 128 145 217 258 59 92 102 132 155 170 126 120 230 235 112 118 122 138 151 155 172 149
347 350 352 352 352 351 350 350 345 336 328 313 300 294 278 268 261 253 257 260 268 280 293 296 263 221 244 88 126 161 190 192 182 184 192 213 249 182 144 194 162 182 250 246 241 231 246 269 261 89 86 84 75 133 177 120 45 250 209 167 226 184 141 151 135 132 124 126 231 295 63 107 97 127 149 141 114 133 202 201 149 151 124 134 138 144 154 134
346 350 350 352 352 351 351 351 345 336 329 314 303 295 278 271 258 253 259 260 273 282 276 279 261 234 231 98 139 187 197 184 170 173 187 221 291 208 148 184 179 189 225 198 237 227 226 289 265 62 142 134 139 219 196 118 165 211 181 208 268 297 248 126 106 118 113 79 273 313 46 110 111 132 139 141 137 151 176 154 185 188 138 131 127 126 130 146
345 348 349 352 352 351 351 350 347 336 328 315 309 309 283 266 261 262 266 269 279 277 264 265 267 255 175 158 180 201 176 162 171 176 186 192 273 244 200 206 169 184 217 193 226 227 202 219 145 165 237 150 166 226 251 142 187 165 145 161 144 297 2 108 99 109 120 147 176 297 349 104 122 139 138 157 168 167 152 138 174 161 112 113 111 115 131 159
344 347 349 351 352 350 349 350 347 334 331 328 339 341 302 264 270 265 256 257 232 229 246 223 236 252 132 170 190 183 143 160 181 175 189 178 186 234 261 237 156 202 234 181 177 212 214 236 172 177 226 139 160 219 17 96 66 73 92 41 32 72 62 93 85 86 109 134 141 162 180 130 126 137 141 147 151 146 112 102 122 97 79 91 101 109 133 151
343 347 348 351 352 349 346 347 344 334 334 333 335 323 286 226 233 226 218 233 221 231 235 173 215 241 125 156 173 139 126 163 193 194 199 194 200 214 226 218 182 219 247 206 164 241 28 269 249 118 64 48 68 48 12 6 48 76 89 38 11 46 48 73 87 84 81 78 90 126 138 157 162 148 128 116 121 127 113 100 103 102 91 86 94 107 122 129
343 345 348 351 351 347 343 340 338 331 325 323 311 273 272 200 221 203 194 226 222 237 261 193 227 338 131 155 151 134 134 179 212 215 180 184 219 214 171 202 217 205 219 199 88 55 251 246 327 29 44 39 21 26 347 318 84 106 97 59 53 58 51 75 90 94 86 76 48 43 65 120 141 118 111 126 153 127 114 116 105 97 94 88 91 105 111 115
343 345 348 350 350 347 340 331 326 319 308 303 256 248 295 15 320 304 284 257 217 206 257 219 177 88 137 150 139 157 176 185 205 203 163 185 219 218 165 194 231 214 168 187 131 149 231 211 66 41 35 39 298 27 354 324 5 112 99 81 92 67 68 77 82 89 84 70 87 72 50 26 36 49 84 116 132 124 140 142 103 89 89 99 98 104 119 129
342 345 347 350 349 343 335 326 314 307 292 257 225 252 326 4 339 314 277 283 236 188 207 200 168 151 179 162 154 180 185 165 180 176 173 207 216 203 189 208 243 216 153 180 254 320 148 63 56 55 359 273 224 84 286 299 353 60 106 105 74 84 95 87 78 70 11 13 86 88 64 29 20 18 42 47 65 114 141 116 97 99 95 111 127 121 127 130
341 344 346 349 347 339 331 316 287 290 284 256 219 354 348 357 358 350 314 275 245 199 198 199 169 146 160 155 167 200 203 146 159 160 164 215 240 242 205 215 237 209 155 193 225 248 78 66 43 84 348 297 326 71 297 291 13 48 57 3 26 81 94 110 113 101 14 25 89 94 73 48 27 31 47 20 13 74 94 77 95 114 111 117 135 133 125 127
340 342 345 347 345 334 320 302 287 306 298 284 40 16 347 6 15 8 358 295 241 173 170 222 201 132 129 138 162 216 235 156 154 161 168 229 267 291 237 223 266 191 123 226 216 155 66 65 324 247 159 301 310 60 33 350 352 76 50 11 14 19 51 96 111 107 139 97 77 90 76 39 65 81 78 44 1 60 98 122 114 117 126 130 130 125 126 133
338 341 343 345 344 332 315 299 320 323 304 314 41 2 342 14 14 5 347 274 197 148 161 205 290 120 145 173 174 218 227 155 102 134 174 281 305 295 270 159 273 230 116 286 252 94 78 111 279 330 4 311 322 65 67 343 323 79 44 10 1 323 9 110 123 113 125 103 56 73 91 67 315 71 87 110 67 63 96 128 134 135 126 112 119 137 134 129
336 339 341 342 344 338 323 317 328 321 312 12 25 346 349 15 359 355 268 252 143 156 177 152 106 143 167 209 193 207 197 122 90 150 202 259 211 257 283 154 229 238 73 311 282 112 76 153 150 7 320 278 347 61 69 334 317 62 38 335 318 324 347 101 134 131 114 100 64 83 101 128 312 78 97 91 79 65 55 88 112 122 118 100 98 128 124 115
334 337 339 338 339 335 315 314 323 321 345 11 356 337 356 357 332 309 251 295 110 167 192 119 121 172 171 218 203 171 120 130 161 170 187 228 226 253 187 225 245 96 89 291 51 124 342 359 4 360 330 322 53 46 36 334 333 40 42 333 332 349 332 313 101 101 108 110 107 111 112 115 12 78 93 71 76 73 49 55 63 70 106 116 86 96 110 113
332 334 337 335 333 335 324 319 308 300 329 352 343 339 345 336 321 253 258 312 149 187 135 105 148 190 167 197 213 159 129 184 189 137 173 210 227 281 273 282 347 108 156 258 81 82 38 1 340 351 350 15 51 45 9 318 339 32 348 265 256 250 276 339 39 87 111 100 133 155 142 108 95 95 71 58 70 73 58 54 58 63 82 96 103 117 118 119
329 332 336 333 329 339 330 307 279 287 321 339 333 331 313 283 277 223 233 254 188 170 132 149 179 197 180 180 205 154 144 200 159 133 196 203 164 241 287 7 348 150 190 232 73 63 70 59 304 337 351 10 37 74 87 333 322 274 266 259 245 242 8 347 36 87 83 62 113 144 124 87 98 129 168 119 105 97 80 65 64 63 58 66 99 130 129 116
327 331 333 329 320 309 299 283 301 321 326 331 327 315 277 227 133 244 234 263 203 162 174 192 166 182 191 181 190 173 158 142 133 155 205 192 166 221 172 63 310 255 183 81 79 132 164 154 135 23 345 328 285 224 178 226 265 248 261 304 321 311 25 268 272 97 100 66 86 110 99 92 100 108 104 104 103 96 86 74 59 57 58 56 71 96 111 105
327 330 330 324 305 279 267 283 331 331 320 326 324 300 243 175 155 248 255 266 248 168 190 186 161 179 185 175 189 186 174 145 158 191 196 158 172 166 68 301 291 76 158 358 90 179 172 105 110 130 132 290 295 278 206 199 221 251 263 61 35 302 315 4 1 9 30 56 59 79 90 94 91 86 80 76 80 76 71 67 53 52 60 62 61 69 81 82
328 331 328 318 290 273 269 287 309 314 317 322 313 269 230 211 199 229 248 246 136 152 233 182 168 190 179 174 188 169 169 159 165 203 200 128 157 141 70 320 43 80 167 302 335 214 146 42 175 164 146 276 321 335 338 282 267 292 312 48 27 324 3 29 360 353 45 36 48 82 93 81 61 74 71 68 74 80 80 75 65 60 56 52 53 61 66 63
329 332 328 312 290 278 275 282 290 302 316 315 287 224 220 231 216 240 255 252 129 227 251 238 191 192 173 173 202 183 176 160 153 184 185 162 149 150 165 137 87 48 100 172 287 282 4 73 160 74 37 326 341 3 349 326 317 352 9 342 10 26 17 31 356 358 49 27 18 66 92 80 69 69 73 86 85 77 76 70 62 60 60 52 48 62 79 80
332 334 326 307 291 277 271 269 275 292 305 300 259 209 212 221 208 254 245 204 203 212 216 232 214 188 161 170 214 204 168 190 182 168 170 160 110 98 193 98 104 331 360 99 131 315 309 107 105 50 4 327 343 19 331 318 334 12 355 328 31 27 341 30 55 6 20 38 21 52 65 70 86 71 62 71 77 85 86 70 60 59 66 65 54 59 70 76
334 333 317 282 261 245 242 236 240 278 290 277 236 216 234 236 174 265 253 202 204 190 181 217 204 174 163 167 214 200 134 275 220 151 119 143 133 183 235 56 39 329 20 19 72 337 302 43 87 273 214 329 345 343 330 336 350 344 342 21 41 16 342 31 106 2 335 112 72 77 80 85 94 66 49 44 56 94 108 80 66 60 61 65 63 58 46 53
334 331 310 278 248 194 194 208 205 257 272 259 239 221 46 3 294 280 265 245 244 211 193 206 194 196 180 152 211 203 154 231 245 129 120 158 135 206 154 105 333 337 31 13 14 30 309 326 95 273 194 116 15 304 304 337 334 330 2 28 12 41 20 10 71 289 290 74 65 73 63 48 50 32 46 43 36 58 68 60 59 50 49 51 49 55 48 54
325 317 297 282 246 150 179 195 188 243 253 235 247 225 91 337 281 279 261 231 244 237 184 183 225 220 172 152 196 192 157 188 208 147 164 161 132 304 12 110 94 359 25 340 338 51 310 286 135 315 11 113 154 251 248 203 335 339 5 4 331 77 53 322 312 15 11 41 71 95 77 46 14 349 53 51 28 32 35 44 54 48 48 45 40 51 52 56
305 291 277 249 149 132 168 176 194 239 235 221 236 207 142 198 237 263 263 228 182 195 72 344 281 149 132 238 211 168 156 182 177 154 180 158 136 222 304 62 111 83 18 327 343 59 319 308 137 54 22 115 174 232 260 168 108 338 355 25 359 29 24 314 327 21 12 15 87 127 99 57 275 237 73 54 36 36 31 38 48 49 53 48 41 44 46 51
298 285 226 139 133 138 156 186 229 235 220 226 237 202 155 208 246 246 240 201 151 117 71 297 286 184 194 237 235 177 163 165 166 165 174 158 146 167 271 347 70 72 41 339 6 42 334 304 214 157 90 155 187 78 26 31 46 350 9 31 352 359 13 344 330 322 335 354 355 90 83 72 214 106 49 42 37 35 35 42 47 52 61 59 52 50 48 49
302 287 170 135 144 151 168 218 230 222 224 223 242 270 166 174 268 237 190 157 161 143 163 231 255 262 232 198 203 211 168 149 168 188 179 171 185 144 99 36 351 27 32 312 35 47 341 309 316 297 142 108 63 55 17 15 22 348 9 30 346 359 4 326 323 351 350 10 14 74 93 61 45 51 40 32 31 36 43 50 55 61 67 68 65 62 57 55
275 270 147 144 166 174 195 236 224 219 239 215 189 266 195 170 245 226 159 163 201 160 161 207 235 258 240 191 207 198 150 146 166 173 205 125 74 59 91 83 344 11 359 339 55 49 347 298 297 293 42 96 75 44 8 15 12 333 1 20 348 9 359 337 23 4 342 1 2 88 113 57 24 38 41 39 44 48 50 52 56 60 65 70 73 70 64 57
253 297 115 160 180 189 212 245 234 219 228 181 120 249 253 243 257 231 172 178 195 161 158 190 229 245 214 187 248 180 140 123 131 142 119 101 79 65 78 50 323 5 1 1 50 35 336 280 279 294 347 111 117 81 41 47 17 311 32 18 346 22 22 4 21 346 331 17 354 25 114 94 35 39 39 45 52 56 58 58 60 61 64 65 67 67 66 59
292 305 279 178 177 192 221 233 245 231 173 149 190 226 258 272 270 263 202 174 177 171 176 188 221 244 205 184 237 182 136 135 150 158 122 105 95 81 88 56 356 33 37 22 25 10 323 311 312 298 277 185 160 114 84 70 152 106 57 26 345 16 24 9 347 304 339 32 346 328 100 100 60 43 38 39 43 46 51 57 61 63 63 62 60 59 62 60
304 284 250 186 170 194 236 241 279 287 166 155 192 215 243 257 252 265 285 202 188 174 173 194 214 228 187 176 214 182 132 150 175 154 123 108 106 102 111 90 48 61 66 30 358 344 319 322 330 329 339 349 20 90 150 322 34 69 40 25 15 20 21 1 315 297 353 11 355 18 101 103 66 44 38 35 36 40 41 43 49 50 50 60 62 54 52 53
304 280 259 198 174 201 245 261 277 286 237 150 187 225 242 257 242 228 242 239 206 151 148 204 217 217 188 173 203 193 150 163 175 168 164 130 123 121 106 91 73 72 77 41 354 329 288 289 13 39 39 38 49 90 212 320 24 60 19 27 35 30 20 355 338 352 351 350 13 36 68 91 67 44 38 34 32 33 34 34 42 45 45 54 60 52 45 41
275 294 293 240 205 217 228 236 241 246 207 179 179 211 222 237 240 214 184 244 257 140 149 211 220 212 197 176 195 208 167 169 173 173 166 129 119 111 98 103 95 89 148 177 125 270 270 241 101 89 62 308 65 98 111 350 18 19 8 22 26 26 24 6 9 23 356 350 45 39 45 69 61 40 36 37 32 31 36 33 35 41 42 42 45 47 47 42
261 290 313 30 249 239 235 246 240 230 207 183 289 282 230 231 239 209 161 208 241 182 155 225 240 214 189 170 185 193 158 162 157 155 144 130 129 130 150 146 116 128 225 186 102 285 283 73 115 120 47 332 338 76 106 62 44 17 27 34 29 34 33 19 28 35 20 38 71 55 54 62 55 43 40 35 30 34 40 40 40 41 38 36 38 42 45 39
304 303 330 353 291 268 291 312 290 250 215 163 158 251 240 242 239 214 184 207 220 188 164 177 238 226 175 162 178 168 156 181 152 149 150 135 136 141 151 130 117 153 187 100 69 307 327 24 48 113 131 205 322 346 35 37 311 171 33 11 31 59 54 49 39 27 22 60 84 85 80 67 52 49 46 36 36 40 42 44 47 45 41 40 41 42 40 31
323 326 342 341 311 283 289 299 292 264 224 164 168 199 223 238 235 221 214 206 189 196 182 164 200 240 182 156 171 160 159 174 144 162 169 155 158 171 184 119 114 124 92 76 40 306 61 5 348 340 172 140 16 324 85 44 338 57 41 19 30 44 43 49 42 21 12 55 77 98 99 79 61 57 52 44 46 49 49 49 46 42 40 36 32 29 25 18
326 316 309 308 299 303 294 272 262 260 240 200 189 194 217 228 228 255 261 219 180 202 194 162 189 220 177 140 154 146 162 195 202 174 162 175 183 147 96 93 117 108 83 79 217 146 154 65 76 238 223 122 255 276 103 76 38 78 65 38 54 56 45 56 56 34 9 15 44 71 85 69 53 59 60 54 53 49 46 44 37 31 30 26 22 18 15 16
346 324 299 287 287 302 293 266 254 251 244 229 207 203 219 214 186 218 267 255 190 206 179 139 182 192 160 156 142 112 118 159 159 133 132 151 102 81 69 38 40 88 115 139 142 276 246 180 149 207 196 131 193 328 62 66 232 99 73 45 55 72 78 73 64 51 25 8 43 70 77 67 50 55 57 55 61 58 49 44 34 27 28 26 24 20 14 18
Height
807 806 805 803 802 801 800 799 798 797 796 795 794 793 792 791 790 789 788 787 786 785 784 783 781 781 779 778 777 776 774 773 773 772 771 770 768 768 768 768 768 768 769 768 768 766 764 763 760 758 757 754 754 751 752 750 747 754 763 772 778 776 771 766 767 771 774 780 781 778 779 786 789 786 784 784 791 800 807 808 808 806 806 808 809 810 810 810
808 807 805 804 803 801 800 799 798 797 796 795 794 793 792 791 790 788 788 787 786 785 784 782 781 780 779 778 777 775 774 773 773 771 769 769 769 769 768 768 768 768 768 768 767 762 761 761 756 756 756 755 753 751 755 751 749 758 763 773 778 772 769 763 765 767 769 779 782 779 781 783 785 786 783 788 795 799 812 817 813 812 811 810 810 811 811 811
809 807 806 805 803 802 801 799 798 797 795 795 793 793 792 790 789 788 787 786 785 784 783 782 781 779 778 777 776 776 774 773 773 770 768 769 770 769 768 769 769 768 768 767 765 759 756 755 753 755 755 755 752 750 756 753 752 755 764 782 778 768 770 766 765 767 767 773 779 782 782 784 786 783 784 790 793 801 820 825 817 816 814 811 810 811 811 811
809 808 807 805 803 802 801 799 798 797 795 794 793 792 791 790 789 788 787 786 785 784 783 782 781 779 779 777 777 776 774 776 773 768 768 769 770 769 769 769 768 768 768 766 764 759 755 752 751 752 753 755 751 750 755 754 754 753 763 783 774 767 776 770 768 769 768 770 775 782 787 793 791 786 789 792 797 813 827 828 820 816 814 812 812 812 812 812
810 808 807 805 804 802 800 799 798 796 795 793 793 792 791 790 789 788 787 786 785 784 783 782 780 779 779 777 777 776 777 783 774 765 769 769 769 770 769 769 768 768 767 766 763 759 756 752 750 752 754 755 755 755 756 750 753 760 763 769 766 769 780 773 768 771 770 771 778 790 797 796 790 790 796 797 809 824 828 826 819 814 812 811 813 813 812 812
810 808 807 805 803 802 800 799 797 796 795 793 792 791 790 789 788 787 786 785 784 784 783 782 780 779 779 777 777 776 781 784 771 765 769 768 769 769 769 769 768 767 766 765 760 758 757 752 753 757 754 754 759 759 757 750 754 771 770 765 765 769 778 775 770 773 775 781 792 797 795 790 791 798 801 802 815 824 823 821 817 813 811 811 812 813 813 813
810 808 807 805 803 802 800 798 797 795 794 792 791 790 790 789 788 787 786 785 784 783 783 781 780 779 779 777 776 775 777 774 766 767 769 768 770 769 769 769 767 766 765 763 758 757 756 755 756 755 753 755 759 758 757 753 755 773 775 768 770 770 774 775 772 777 783 791 795 792 790 791 796 802 802 806 815 820 821 819 816 816 814 812 812 812 815 815
810 808 806 805 803 801 799 798 796 794 793 792 791 790 789 788 787 786 785 785 783 783 782 781 780 779 779 777 775 775 772 768 766 768 768 768 769 768 769 767 766 765 763 761 756 754 755 757 754 749 755 758 756 758 760 761 766 778 779 771 772 772 773 774 776 781 786 791 790 790 794 795 796 799 802 807 813 818 822 818 815 817 817 814 813 815 817 817
810 808 806 804 802 800 799 797 795 794 792 790 790 789 788 787 787 786 785 784 782 782 781 780 780 778 778 776 774 775 770 765 766 768 768 769 768 768 768 766 765 763 760 759 753 752 754 756 752 747 756 757 755 759 762 772 780 778 775 773 774 775 774 776 780 784 788 790 790 796 799 796 794 797 803 805 806 813 819 818 814 817 818 815 815 817 818 818
810 808 806 804 801 800 798 796 794 792 791 790 789 788 787 786 785 785 783 782 782 781 781 780 780 778 778 775 774 776 769 763 767 768 768 769 768 768 767 764 763 759 755 755 753 751 750 751 748 745 751 754 756 761 766 777 780 774 775 778 778 779 777 777 783 785 788 791 792 798 801 798 794 797 807 804 800 805 813 820 819 818 819 818 818 817 817 817
810 808 806 803 801 799 797 795 793 791 790 788 787 787 786 785 785 784 782 782 780 780 781 779 779 779 778 775 776 775 765 764 767 767 768 769 768 767 764 763 761 756 752 751 752 750 747 745 742 747 755 756 759 765 769 773 775 776 779 783 784 783 780 778 784 787 788 793 793 795 799 798 796 800 805 802 798 801 807 816 820 820 820 821 820 817 816 816
810 807 805 803 801 798 796 795 792 790 789 787 787 786 785 784 784 783 782 781 779 780 780 779 779 779 777 774 773 769 763 764 766 766 768 768 767 766 763 763 760 757 753 748 750 751 750 747 744 754 760 758 765 772 772 772 776 779 780 791 793 787 786 782 784 788 789 794 791 793 802 801 801 804 802 800 800 801 804 809 814 820 824 824 820 817 817 817
809 807 805 802 800 797 796 793 791 789 787 786 786 784 784 783 782 782 781 780 779 779 779 778 778 777 779 776 766 763 764 764 766 765 767 766 765 764 763 763 759 758 755 749 751 753 753 752 749 753 754 757 768 770 770 772 777 783 785 795 799 798 796 786 786 790 790 794 788 794 810 809 805 803 800 800 800 803 807 808 808 816 825 826 821 819 819 819
809 807 804 802 799 797 795 792 790 788 786 785 784 783 783 782 782 782 780 779 778 778 778 778 777 777 780 774 764 763 764 764 767 766 766 765 762 762 762 762 759 758 756 753 754 754 754 751 749 752 752 756 763 767 779 785 785 790 794 795 798 807 803 787 787 792 794 795 786 793 811 810 804 802 800 799 802 809 813 808 805 810 821 826 821 818 819 820
809 806 804 801 799 796 794 792 789 787 786 785 783 783 782 782 782 780 780 779 777 778 777 775 775 776 777 771 764 766 766 764 766 764 763 762 759 759 760 760 759 758 757 755 755 755 753 750 751 757 758 758 765 780 795 800 800 801 804 804 800 802 801 789 785 788 795 794 784 792 807 807 803 802 800 796 801 812 813 807 805 806 814 821 818 816 818 820
808 806 803 801 798 796 793 791 789 787 785 784 783 783 782 781 780 780 780 778 777 778 777 776 772 772 777 772 765 767 766 763 762 762 762 761 758 756 757 758 758 758 757 755 755 754 751 751 754 757 762 769 778 788 795 803 812 807 803 807 801 798 800 794 786 782 789 793 788 794 803 804 802 800 798 795 799 808 808 806 806 806 808 814 817 818 818 818
808 805 802 800 797 795 793 791 788 786 785 784 783 782 781 781 780 780 779 777 779 777 776 775 768 769 774 768 767 768 763 761 762 762 762 761 759 756 756 757 756 756 755 754 755 752 752 755 759 760 764 774 781 784 794 813 824 812 802 804 800 795 797 798 793 785 789 795 794 796 797 800 801 798 798 797 798 803 805 806 807 806 806 808 812 819 821 818
807 805 802 799 796 794 792 790 788 786 785 784 783 782 781 781 780 779 779 778 778 777 778 774 768 779 782 769 767 766 758 760 762 761 762 761 761 757 755 754 753 755 757 758 757 755 757 757 761 771 775 778 783 784 793 808 810 803 802 802 799 795 795 797 794 788 795 802 803 805 802 797 797 797 798 797 797 801 802 804 806 804 804 805 809 818 821 818
807 804 801 798 795 793 792 790 788 786 785 784 783 782 781 780 780 779 778 778 779 781 782 775 771 781 780 765 760 759 757 761 762 761 761 760 761 759 755 753 753 757 762 765 763 757 758 761 766 780 783 780 783 781 782 785 782 785 791 793 795 796 792 787 784 782 790 802 805 807 806 799 797 799 798 795 794 798 800 800 803 803 803 805 808 815 818 818
807 804 801 798 795 793 791 789 788 787 785 785 783 783 783 783 784 782 777 776 775 773 770 766 765 766 763 758 756 757 760 762 762 761 759 759 759 758 756 755 755 761 764 767 765 754 757 772 775 776 778 774 773 772 771 770 771 780 787 788 790 794 791 782 781 780 780 795 798 792 798 801 800 800 795 792 792 796 800 800 801 801 803 806 807 812 815 816
807 804 801 797 795 792 790 789 788 787 786 785 784 785 782 780 785 784 778 774 767 761 760 757 756 758 756 755 755 757 763 766 763 758 758 758 756 760 762 758 763 769 764 762 763 757 762 779 778 768 769 769 769 768 768 767 770 777 783 787 788 790 789 779 780 784 780 791 797 787 793 798 793 792 791 791 793 795 797 799 799 799 801 805 806 809 814 815
807 804 801 798 794 792 790 788 787 787 785 786 786 783 777 774 778 776 775 778 767 757 759 756 755 758 753 752 755 757 763 769 767 759 756 757 758 764 764 760 769 771 762 760 766 770 774 778 773 766 765 767 767 766 768 768 767 773 780 786 788 788 791 783 779 786 784 789 796 793 798 799 791 787 787 789 791 796 797 794 796 798 801 804 805 807 812 816
807 804 801 798 794 793 790 788 786 785 784 784 783 780 776 775 775 771 773 781 774 760 758 758 758 760 758 756 756 757 763 766 769 762 755 758 760 760 761 765 769 767 765 768 774 780 783 777 768 765 766 767 767 766 768 770 768 773 780 785 786 785 796 800 791 788 788 788 791 794 800 804 800 793 788 787 787 792 796 793 794 799 800 802 803 806 809 814
807 804 802 798 795 793 791 789 786 784 782 780 779 779 777 776 776 775 774 781 778 763 755 754 752 757 759 756 754 759 760 758 763 762 754 759 760 755 759 764 766 767 767 768 770 776 779 772 764 765 768 767 768 768 768 773 775 774 775 780 782 779 783 793 791 788 790 788 786 795 811 816 807 803 800 794 790 791 795 796 797 799 800 800 802 804 806 809
807 805 802 798 796 792 791 790 785 784 782 778 778 779 779 778 777 777 779 788 786 767 757 754 750 754 754 754 757 757 756 755 757 756 752 755 759 759 759 758 762 771 770 764 767 774 774 767 763 767 768 766 768 770 770 774 778 778 775 774 776 776 776 784 787 789 801 805 790 796 830 837 811 804 808 802 798 798 798 799 799 799 799 800 802 804 806 807
808 806 802 800 797 792 791 789 786 785 781 778 779 780 779 779 779 778 783 798 795 774 767 764 759 759 756 756 755 751 759 763 753 751 753 754 754 757 763 763 762 769 767 762 766 772 772 766 765 769 768 768 769 771 771 772 779 785 778 770 771 773 774 782 789 798 812 815 795 793 831 846 820 808 808 804 804 802 798 800 800 800 800 800 802 804 806 808
808 805 803 801 798 796 793 789 789 785 782 781 781 781 781 779 780 778 789 813 804 778 772 768 764 763 759 755 750 755 773 769 757 756 754 755 754 752 765 770 767 766 760 764 777 776 770 768 768 769 769 771 774 775 773 771 780 785 774 769 772 773 774 778 788 801 804 801 799 799 818 840 833 815 805 802 806 806 800 801 801 800 802 802 802 803 806 810
808 805 803 801 799 799 795 793 792 786 784 784 782 783 781 779 781 778 801 831 808 773 769 766 761 759 756 754 750 757 768 764 769 769 751 753 756 754 767 769 765 768 762 772 791 780 768 773 773 770 772 774 775 776 771 770 779 779 769 770 771 772 775 773 780 795 792 798 819 814 811 836 839 816 803 803 807 811 808 803 801 801 803 805 805 804 807 810
807 806 803 801 798 797 796 794 792 788 786 785 784 785 781 781 782 784 814 831 795 766 765 764 763 760 757 759 755 755 760 760 769 766 752 755 756 755 766 762 759 769 765 768 782 777 770 773 770 771 777 777 775 773 769 773 779 773 768 771 769 768 771 771 779 791 793 806 827 819 809 831 840 822 814 815 815 816 812 805 802 801 801 804 807 807 808 811
807 805 803 801 798 797 796 794 791 789 787 786 786 785 782 784 787 807 834 822 785 770 767 765 768 765 762 767 764 759 761 761 759 759 759 758 756 756 758 755 757 767 767 764 772 775 771 768 766 770 776 774 772 771 769 771 772 769 770 771 771 770 771 775 777 785 804 816 815 806 801 818 838 832 820 817 816 813 811 808 804 801 801 803 806 809 810 811
805 804 802 800 798 797 797 793 789 789 788 787 786 782 784 788 800 829 834 799 778 777 770 768 770 765 766 773 773 764 763 763 759 764 769 763 764 765 763 768 769 771 777 776 777 777 773 773 774 771 770 769 771 772 768 767 766 768 772 774 783 786 781 788 788 791 817 824 804 793 794 813 840 835 815 807 804 803 806 808 806 805 806 806 806 809 810 811
804 803 801 798 797 796 795 791 789 790 789 787 786 783 789 803 819 831 813 786 789 789 773 771 770 766 768 772 772 767 766 769 765 766 768 768 773 772 773 781 778 787 800 792 785 783 777 776 775 772 769 767 773 776 771 767 765 769 772 778 800 810 803 810 815 812 821 816 795 790 798 816 828 818 804 802 800 800 803 806 807 807 808 807 807 809 811 812
803 800 798 797 795 794 793 792 790 791 790 788 788 785 794 817 826 816 798 791 797 788 771 769 768 765 769 773 774 769 767 770 767 766 765 767 776 776 776 775 770 789 806 797 794 794 789 782 773 775 776 767 771 781 784 780 772 773 776 783 806 820 823 835 834 825 827 817 793 787 804 821 820 807 800 800 800 800 802 804 807 807 807 808 807 809 813 814
801 799 797 795 794 792 792 792 791 791 790 789 790 793 807 825 818 802 796 792 788 781 774 773 770 768 770 775 775 768 770 773 766 768 770 771 782 784 780 776 771 780 790 795 800 800 805 804 784 779 782 773 771 778 782 781 775 773 769 776 795 805 817 834 833 826 831 825 801 796 817 830 825 811 799 795 796 797 801 804 805 806 806 808 809 811 815 817
800 798 796 794 793 792 791 792 791 791 792 791 793 802 817 823 810 801 799 788 781 780 777 773 772 775 777 778 774 765 769 776 768 769 775 778 787 790 782 780 777 777 785 800 802 795 804 806 783 775 778 774 776 774 769 777 785 777 768 779 792 791 796 812 819 814 818 825 817 815 826 821 810 804 795 794 799 800 804 807 806 809 809 810 813 814 815 818
799 796 795 794 792 791 790 792 792 792 792 794 801 808 812 810 804 803 793 778 778 781 782 780 774 780 786 782 779 770 769 774 767 770 780 781 785 787 782 780 778 776 783 796 800 798 805 802 780 775 777 772 777 775 767 779 790 782 781 791 788 778 783 803 817 810 809 827 830 826 830 816 807 812 805 801 806 807 808 809 809 811 811 813 817 816 816 818
799 796 794 791 789 789 791 791 792 793 791 795 806 811 810 806 802 801 788 775 778 777 784 792 783 781 787 787 787 778 775 778 771 774 786 786 787 784 780 781 779 775 777 784 792 794 800 802 783 776 783 776 771 775 772 771 779 785 793 790 779 779 786 799 819 821 820 832 834 832 835 829 831 833 818 811 814 812 809 809 811 813 814 817 818 818 819 820
800 797 794 789 787 789 790 791 792 792 792 799 807 807 809 807 799 796 787 777 778 775 784 799 790 779 783 789 788 777 778 785 780 782 790 790 791 786 779 783 781 777 775 778 788 788 791 804 792 775 782 779 768 778 785 774 770 780 785 778 782 804 813 809 818 829 832 837 843 846 842 842 852 844 825 823 822 815 812 812 814 817 818 820 819 819 821 822
801 799 793 788 787 789 790 792 792 792 796 805 807 803 806 806 799 796 786 775 778 780 789 799 790 782 786 788 783 775 778 785 783 786 792 792 794 787 779 782 783 780 776 775 786 787 787 806 806 781 776 779 775 785 797 792 780 778 779 780 785 800 810 810 810 818 830 837 842 849 851 856 857 838 823 825 819 815 817 816 817 820 821 822 822 822 824 825
801 799 794 787 788 790 790 791 792 795 801 804 800 797 800 803 801 796 782 773 777 784 794 799 791 789 791 786 780 775 776 781 782 787 790 788 792 790 781 781 782 781 779 777 784 790 789 802 811 790 776 785 791 793 796 796 794 792 793 799 800 796 800 807 808 805 816 831 835 843 861 862 842 823 819 821 816 814 817 818 820 822 824 825 826 826 827 827
801 801 794 786 789 790 789 794 795 796 799 797 793 793 797 802 803 789 773 770 775 780 788 792 791 791 788 783 781 775 774 780 782 785 788 786 790 793 785 781 783 783 784 785 788 796 799 803 809 800 791 799 799 788 784 787 791 795 798 802 804 802 805 819 826 812 804 819 825 836 864 859 824 813 818 816 815 816 816 821 824 824 826 828 828 828 828 827
803 801 792 786 789 789 790 796 794 791 792 791 789 791 793 800 801 783 769 772 774 774 778 782 787 790 784 779 778 774 776 783 784 786 789 786 787 791 786 781 783 783 787 793 792 794 799 803 809 805 797 797 794 784 783 786 787 790 795 797 797 800 807 822 837 827 812 816 813 820 855 857 823 813 818 815 817 818 819 823 824 825 827 828 829 829 828 828
800 797 788 786 788 787 793 800 793 788 790 787 785 786 785 791 795 779 769 773 773 773 779 781 783 785 780 775 775 776 779 785 787 787 788 788 788 788 785 782 784 784 789 797 797 795 799 803 810 809 797 790 788 783 783 785 789 797 800 798 798 801 805 811 820 820 818 824 819 824 855 858 827 815 817 816 818 819 821 825 826 829 829 828 830 830 829 830
798 794 787 786 787 787 795 801 794 789 790 788 789 789 785 788 792 782 772 772 771 773 780 781 779 779 775 773 774 775 779 789 792 787 786 791 790 786 784 784 786 789 795 801 801 800 806 807 810 818 818 812 807 805 804 798 796 803 805 802 801 801 803 810 811 812 821 826 821 831 855 852 828 819 820 820 821 823 823 825 827 830 830 830 832 831 832 832
800 796 787 783 785 788 792 792 790 790 790 792 794 793 790 790 785 777 776 775 768 769 778 779 775 772 771 772 776 775 777 786 792 788 786 791 791 787 785 786 788 792 797 800 797 798 808 809 810 823 838 840 837 835 833 819 805 806 808 806 805 805 810 817 817 821 832 830 821 832 848 843 828 825 827 827 827 828 827 826 828 829 830 832 833 834 834 833
802 800 792 784 783 786 788 784 786 790 791 795 799 795 795 796 782 770 774 777 767 765 775 777 771 771 773 775 781 781 779 781 786 789 789 792 793 790 786 787 791 795 799 799 797 799 807 808 807 819 833 836 833 828 821 814 813 816 815 811 810 812 814 818 824 833 837 834 835 836 836 839 838 835 834 834 833 833 832 831 832 832 833 833 834 835 835 834
804 801 794 792 790 788 787 784 783 787 788 793 798 794 793 795 786 773 773 777 769 766 774 775 771 775 779 779 785 787 783 781 784 788 790 790 792 791 789 790 794 799 800 799 797 802 810 812 811 815 820 816 813 812 809 810 815 818 817 817 816 815 816 822 831 834 830 839 852 843 832 843 848 840 839 840 838 837 836 835 835 835 835 835 835 836 837 838
802 797 789 793 797 791 788 785 781 782 783 788 796 795 792 793 789 781 778 776 771 768 777 781 777 776 777 779 786 790 788 789 791 790 791 791 793 795 795 793 795 798 799 798 798 801 810 816 812 813 818 813 807 807 807 809 814 815 816 819 818 818 822 826 829 826 825 840 853 845 841 850 849 843 843 842 839 839 838 837 837 837 837 837 838 839 841 842
799 797 789 790 794 790 787 785 781 780 781 787 798 799 796 797 791 781 776 777 777 771 775 787 785 777 774 776 783 791 794 797 800 796 793 794 795 798 801 801 798 795 796 801 801 801 810 817 811 810 819 817 811 809 808 810 814 814 814 814 814 817 822 824 828 827 826 834 839 840 847 852 847 845 844 841 840 840 839 839 840 840 841 841 842 843 844 844
802 802 799 797 796 790 788 786 784 783 780 784 795 795 795 797 790 779 774 777 784 779 774 784 787 778 775 777 782 790 791 792 798 796 793 797 799 799 803 804 800 797 798 804 805 803 812 820 813 810 819 821 814 811 811 813 815 817 819 818 817 822 826 829 835 835 834 837 836 838 849 852 846 843 842 842 842 842 843 845 845 844 845 844 845 845 844 844
804 803 803 805 802 794 791 788 784 787 786 784 789 791 794 794 786 783 780 772 775 780 776 780 784 779 779 781 784 788 785 783 789 789 788 794 796 796 798 798 798 802 806 807 807 805 811 818 815 815 826 828 817 812 813 814 816 823 828 826 825 830 834 836 838 839 840 843 842 845 854 856 846 841 843 844 845 847 849 850 849 848 847 847 847 847 845 845
807 805 802 805 805 798 793 789 785 789 788 783 783 784 788 787 781 785 788 775 769 773 772 775 781 782 785 790 788 785 780 779 781 780 781 786 787 789 794 794 794 800 806 807 809 808 807 812 815 818 830 832 820 814 817 821 831 839 835 829 829 832 833 836 839 839 839 840 846 853 857 852 844 842 845 847 849 853 854 852 852 850 848 848 848 847 846 845